| time (UTC) | temp C | wind direction | speed KPH | gust KPH | rain 1hr cm | rain 24hr cm | rain mn cm | humidity % | barometer mb |
| 20260906080800 | 26 | 114 | 4.8 | 8.0 | 0.00 | 0.00 | 0.00 | 55 | 1023.1 |
| 20260906075607 | 26 | 153 | 3.2 | 9.7 | 0.00 | 0.00 | 0.00 | 59 | 1023.0 |
| 20260906074440 | 26 | 210 | 6.4 | 9.7 | 0.00 | 0.00 | 0.00 | 60 | 1023.1 |
| 20260906073312 | 26 | 166 | 8.0 | 9.7 | 0.00 | 0.00 | 0.00 | 63 | 1023.0 |
| 20260906072144 | 27 | 180 | 3.2 | 4.8 | 0.00 | 0.00 | 0.00 | 58 | 1023.0 |
| 20260906070928 | 25 | 6 | 3.2 | 3.2 | 0.00 | 0.00 | 0.00 | 61 | 1022.8 |
| 20260906065747 | 25 | 324 | 3.2 | 4.8 | 0.00 | 0.00 | 0.00 | 61 | 1022.6 |
| 20260906064620 | 25 | 324 | 4.8 | 4.8 | 0.00 | 0.00 | 0.00 | 65 | 1022.7 |
| 20260906063452 | 24 | 311 | 3.2 | 8.0 | 0.00 | 0.00 | 0.00 | 63 | 1022.6 |
| 20260906062325 | 23 | 346 | 3.2 | 6.4 | 0.00 | 0.00 | 0.00 | 64 | 1022.5 |
| 20260906061108 | 23 | 354 | 4.8 | 8.0 | 0.00 | 0.00 | 0.00 | 65 | 1022.4 |
| 20260906055927 | 22 | 295 | 3.2 | 4.8 | 0.00 | 0.00 | 0.00 | 71 | 1022.4 |
| 20260906054759 | 22 | 294 | 3.2 | 3.2 | 0.00 | 0.00 | 0.00 | 75 | 1022.3 |
| 20260906053631 | 22 | 294 | 0.0 | 3.2 | 0.00 | 0.00 | 0.00 | 74 | 1022.1 |
| 20260906052504 | 21 | 294 | 3.2 | 4.8 | 0.00 | 0.00 | 0.00 | 72 | 1022.0 |
| 20260906051336 | 21 | 294 | 6.4 | 6.4 | 0.00 | 0.00 | 0.00 | 75 | 1021.9 |
| 20260906050209 | 20 | 296 | 4.8 | 6.4 | 0.00 | 0.00 | 0.00 | 77 | 1021.8 |
| 20260906045054 | 20 | 296 | 6.4 | 8.0 | 0.00 | 0.00 | 0.00 | 81 | 1021.7 |
| 20260906043913 | 20 | 294 | 6.4 | 6.4 | 0.00 | 0.00 | 0.00 | 78 | 1021.7 |
| 20260906042745 | 20 | 295 | 6.4 | 8.0 | 0.00 | 0.00 | 0.00 | 79 | 1021.7 |
| 20260906041617 | 20 | 294 | 6.4 | 6.4 | 0.00 | 0.00 | 0.00 | 80 | 1021.5 |
| 20260906040450 | 20 | 294 | 3.2 | 3.2 | 0.00 | 0.00 | 0.00 | 79 | 1021.5 |
| 20260906035323 | 20 | 294 | 3.2 | 4.8 | 0.00 | 0.00 | 0.00 | 81 | 1021.4 |
| 20260906034155 | 20 | 294 | 4.8 | 6.4 | 0.00 | 0.00 | 0.00 | 77 | 1021.3 |
| 20260906033028 | 20 | 294 | 6.4 | 8.0 | 0.00 | 0.00 | 0.00 | 76 | 1021.2 |
| 20260906031847 | 20 | 306 | 3.2 | 8.0 | 0.00 | 0.00 | 0.00 | 78 | 1021.2 |
| 20260906030719 | 20 | 300 | 8.0 | 8.0 | 0.00 | 0.00 | 0.00 | 78 | 1021.0 |
| 20260906025551 | 20 | 306 | 6.4 | 6.4 | 0.00 | 0.00 | 0.00 | 79 | 1020.9 |
| 20260906024424 | 21 | 306 | 6.4 | 8.0 | 0.00 | 0.00 | 0.00 | 77 | 1020.9 |
| 20260906023207 | 21 | 276 | 4.8 | 6.4 | 0.00 | 0.00 | 0.00 | 76 | 1020.9 |
| 20260906022026 | 21 | 198 | 3.2 | 4.8 | 0.00 | 0.00 | 0.00 | 73 | 1020.9 |
| 20260906020859 | 23 | 162 | 4.8 | 8.0 | 0.00 | 0.00 | 0.00 | 66 | 1020.9 |
| 20260906015732 | 23 | 289 | 6.4 | 9.7 | 0.00 | 0.00 | 0.00 | 64 | 1020.7 |
| 20260906014604 | 23 | 313 | 8.0 | 9.7 | 0.00 | 0.00 | 0.00 | 64 | 1020.5 |
| 20260906013347 | 23 | 313 | 8.0 | 19.3 | 0.00 | 0.00 | 0.00 | 64 | 1020.6 |
| 20260906012206 | 23 | 354 | 8.0 | 14.5 | 0.00 | 0.00 | 0.00 | 64 | 1020.7 |
| 20260906011039 | 23 | 340 | 14.5 | 14.5 | 0.00 | 0.00 | 0.00 | 62 | 1020.6 |
| 20260906005911 | 23 | 12 | 9.7 | 11.3 | 0.00 | 0.00 | 0.00 | 62 | 1020.5 |
| 20260906004744 | 23 | 283 | 8.0 | 11.3 | 0.00 | 0.00 | 0.00 | 64 | 1020.5 |
| 20260906003615 | 23 | 299 | 4.8 | 11.3 | 0.00 | 0.00 | 0.00 | 65 | 1020.6 |
| 20260906002448 | 23 | 342 | 6.4 | 11.3 | 0.00 | 0.00 | 0.00 | 63 | 1020.6 |
| 20260906001333 | 23 | 317 | 8.0 | 11.3 | 0.00 | 0.00 | 0.00 | 62 | 1020.6 |
| 20260906000152 | 23 | 306 | 8.0 | 9.7 | 0.00 | 0.00 | 0.00 | 64 | 1020.6 |
| 20260905235024 | 22 | 295 | 9.7 | 9.7 | 0.00 | 0.00 | 0.00 | 65 | 1020.6 |
| 20260905233857 | 21 | 312 | 4.8 | 4.8 | 0.00 | 0.00 | 0.00 | 72 | 1020.5 |
| 20260905232729 | 21 | 348 | 0.0 | 4.8 | 0.00 | 0.00 | 0.00 | 76 | 1020.6 |
| 20260905231513 | 22 | 271 | 0.0 | 6.4 | 0.00 | 0.00 | 0.00 | 74 | 1020.6 |
| 20260905230332 | 22 | 300 | 6.4 | 8.0 | 0.00 | 0.00 | 0.00 | 71 | 1020.5 |
| 20260905225204 | 22 | 290 | 6.4 | 8.0 | 0.00 | 0.00 | 0.00 | 73 | 1020.5 |
| 20260905224037 | 21 | 288 | 6.4 | 6.4 | 0.00 | 0.00 | 0.00 | 74 | 1020.3 |
| 20260905222857 | 22 | 290 | 8.0 | 8.0 | 0.00 | 0.00 | 0.00 | 72 | 1020.2 |
| 20260905221640 | 22 | 301 | 6.4 | 9.7 | 0.00 | 0.00 | 0.00 | 71 | 1020.1 |
| 20260905220459 | 22 | 306 | 8.0 | 8.0 | 0.00 | 0.00 | 0.00 | 76 | 1020.1 |
| 20260905215331 | 22 | 306 | 8.0 | 9.7 | 0.00 | 0.00 | 0.00 | 72 | 1020.1 |
| 20260905214204 | 22 | 296 | 6.4 | 6.4 | 0.00 | 0.00 | 0.00 | 75 | 1020.0 |
| 20260905213036 | 22 | 296 | 6.4 | 8.0 | 0.00 | 0.00 | 0.00 | 74 | 1019.9 |
| 20260905211819 | 22 | 301 | 6.4 | 8.0 | 0.00 | 0.00 | 0.00 | 75 | 1019.8 |
| 20260905210637 | 22 | 301 | 8.0 | 9.7 | 0.00 | 0.00 | 0.00 | 73 | 1019.9 |
| 20260905205510 | 22 | 299 | 8.0 | 8.0 | 0.00 | 0.00 | 0.00 | 70 | 1019.9 |
| 20260905204343 | 22 | 290 | 6.4 | 8.0 | 0.00 | 0.00 | 0.00 | 71 | 1019.9 |
| 20260905203215 | 22 | 300 | 8.0 | 8.0 | 0.00 | 0.00 | 0.00 | 71 | 1019.9 |
| 20260905201959 | 22 | 304 | 6.4 | 9.7 | 0.00 | 0.00 | 0.00 | 71 | 1019.9 |
| 20260905200817 | 22 | 301 | 8.0 | 8.0 | 0.00 | 0.00 | 0.00 | 69 | 1019.8 |
| 20260905195650 | 22 | 284 | 8.0 | 11.3 | 0.00 | 0.00 | 0.00 | 69 | 1019.7 |
| 20260905194522 | 23 | 318 | 6.4 | 9.7 | 0.00 | 0.00 | 0.00 | 73 | 1019.5 |
| 20260905193354 | 23 | 302 | 8.0 | 11.3 | 0.00 | 0.00 | 0.00 | 70 | 1019.4 |
| 20260905192137 | 23 | 306 | 8.0 | 9.7 | 0.00 | 0.00 | 0.00 | 65 | 1019.1 |
| 20260905190956 | 23 | 311 | 4.8 | 6.4 | 0.00 | 0.00 | 0.00 | 69 | 1019.0 |
| 20260905185829 | 23 | 318 | 6.4 | 8.0 | 0.00 | 0.00 | 0.00 | 70 | 1018.8 |
| 20260905184701 | 24 | 294 | 6.4 | 6.4 | 0.00 | 0.00 | 0.00 | 63 | 1018.7 |
| 20260905183533 | 25 | 274 | 4.8 | 9.7 | 0.00 | 0.00 | 0.00 | 63 | 1018.5 |
| 20260905182317 | 25 | 336 | 6.4 | 9.7 | 0.00 | 0.00 | 0.00 | 61 | 1018.3 |
| 20260905181136 | 25 | 295 | 6.4 | 8.0 | 0.00 | 0.00 | 0.00 | 65 | 1018.0 |
| 20260905180008 | 25 | 340 | 8.0 | 11.3 | 0.00 | 0.00 | 0.00 | 59 | 1017.9 |
| 20260905174841 | 25 | 307 | 8.0 | 8.0 | 0.00 | 0.00 | 0.00 | 60 | 1017.7 |
| 20260905173712 | 25 | 297 | 4.8 | 8.0 | 0.00 | 0.00 | 0.00 | 62 | 1017.6 |
| 20260905172455 | 23 | 300 | 6.4 | 8.0 | 0.00 | 0.00 | 0.00 | 68 | 1017.5 |
| 20260905171314 | 24 | 306 | 8.0 | 8.0 | 0.00 | 0.00 | 0.00 | 66 | 1017.3 |
| 20260905170146 | 24 | 294 | 6.4 | 8.0 | 0.00 | 0.00 | 0.00 | 65 | 1017.2 |
| 20260905165019 | 24 | 299 | 8.0 | 8.0 | 0.00 | 0.00 | 0.00 | 67 | 1017.2 |
| 20260905163852 | 23 | 311 | 6.4 | 8.0 | 0.00 | 0.00 | 0.00 | 69 | 1017.2 |
| 20260905162635 | 23 | 299 | 8.0 | 8.0 | 0.00 | 0.00 | 0.00 | 68 | 1017.1 |
| 20260905161453 | 23 | 311 | 6.4 | 8.0 | 0.00 | 0.00 | 0.00 | 70 | 1017.0 |
| 20260905160326 | 24 | 301 | 6.4 | 8.0 | 0.00 | 0.00 | 0.00 | 68 | 1016.9 |
| 20260905155158 | 25 | 296 | 6.4 | 8.0 | 0.00 | 0.00 | 0.00 | 67 | 1016.8 |
| 20260905154031 | 26 | 294 | 6.4 | 8.0 | 0.00 | 0.00 | 0.00 | 62 | 1016.8 |
| 20260905152903 | 26 | 311 | 3.2 | 8.0 | 0.00 | 0.00 | 0.00 | 66 | 1016.7 |
| 20260905151723 | 27 | 270 | 3.2 | 6.4 | 0.00 | 0.00 | 0.00 | 59 | 1016.7 |
| 20260905150557 | 27 | 270 | 3.2 | 8.0 | 0.00 | 0.00 | 0.00 | 60 | 1016.7 |
| 20260905145415 | 27 | 271 | 3.2 | 4.8 | 0.00 | 0.00 | 0.00 | 58 | 1016.6 |
| 20260905144235 | 28 | 272 | 3.2 | 6.4 | 0.00 | 0.00 | 0.00 | 45 | 1016.6 |
| 20260905143108 | 29 | 177 | 3.2 | 6.4 | 0.00 | 0.00 | 0.00 | 48 | 1016.7 |
| 20260905141928 | 28 | 150 | 6.4 | 9.7 | 0.00 | 0.00 | 0.00 | 46 | 1016.6 |
| 20260905140748 | 28 | 96 | 3.2 | 9.7 | 0.00 | 0.00 | 0.00 | 43 | 1016.7 |
| 20260905135620 | 27 | 258 | 3.2 | 4.8 | 0.00 | 0.00 | 0.00 | 65 | 1016.7 |
| 20260905134454 | 27 | 192 | 3.2 | 3.2 | 0.00 | 0.00 | 0.00 | 60 | 1016.8 |
| 20260905133313 | 28 | 160 | 0.0 | 8.0 | 0.00 | 0.00 | 0.00 | 48 | 1016.8 |
| 20260905132133 | 28 | 138 | 4.8 | 9.7 | 0.00 | 0.00 | 0.00 | 46 | 1016.6 |
| 20260905130952 | 28 | 134 | 4.8 | 11.3 | 0.00 | 0.00 | 0.00 | 45 | 1016.8 |
| 20260905125825 | 28 | 228 | 3.2 | 11.3 | 0.00 | 0.00 | 0.00 | 47 | 1016.8 |
| 20260905124609 | 28 | 174 | 6.4 | 9.7 | 0.00 | 0.00 | 0.00 | 50 | 1016.9 |
| 20260905123416 | 28 | 210 | 3.2 | 11.3 | 0.00 | 0.00 | 0.00 | 51 | 1016.9 |
| 20260905122223 | 28 | 354 | 3.2 | 11.3 | 0.00 | 0.00 | 0.00 | 49 | 1017.1 |
| 20260905121054 | 28 | 126 | 8.0 | 11.3 | 0.00 | 0.00 | 0.00 | 51 | 1017.1 |
| 20260905115927 | 27 | 222 | 4.8 | 11.3 | 0.00 | 0.00 | 0.00 | 51 | 1017.2 |
| 20260905114710 | 27 | 92 | 8.0 | 11.3 | 0.00 | 0.00 | 0.00 | 53 | 1017.3 |
| 20260905113529 | 27 | 102 | 3.2 | 9.7 | 0.00 | 0.00 | 0.00 | 54 | 1017.3 |
| 20260905112402 | 27 | 254 | 4.8 | 8.0 | 0.00 | 0.00 | 0.00 | 53 | 1017.3 |
| 20260905111234 | 27 | 216 | 6.4 | 8.0 | 0.00 | 0.00 | 0.00 | 53 | 1017.5 |
| 20260905110106 | 27 | 264 | 4.8 | 4.8 | 0.00 | 0.00 | 0.00 | 54 | 1017.5 |
| 20260905104850 | 27 | 198 | 6.4 | 6.4 | 0.00 | 0.00 | 0.00 | 52 | 1017.5 |
| 20260905103709 | 27 | 138 | 3.2 | 8.0 | 0.00 | 0.00 | 0.00 | 53 | 1017.6 |
| 20260905102541 | 26 | 108 | 6.4 | 11.3 | 0.00 | 0.00 | 0.00 | 57 | 1017.5 |
| 20260905101413 | 26 | 126 | 3.2 | 8.0 | 0.00 | 0.00 | 0.00 | 57 | 1017.4 |
| 20260905100246 | 27 | 233 | 6.4 | 11.3 | 0.00 | 0.00 | 0.00 | 57 | 1017.6 |
| 20260905095029 | 27 | 88 | 4.8 | 6.4 | 0.00 | 0.00 | 0.00 | 58 | 1017.6 |
| 20260905093849 | 26 | 95 | 6.4 | 6.4 | 0.00 | 0.00 | 0.00 | 58 | 1017.5 |
| 20260905092721 | 26 | 108 | 0.0 | 3.2 | 0.00 | 0.00 | 0.00 | 60 | 1017.5 |
| 20260905091553 | 26 | 204 | 3.2 | 6.4 | 0.00 | 0.00 | 0.00 | 61 | 1017.7 |
| 20260905090427 | 25 | 210 | 3.2 | 8.0 | 0.00 | 0.00 | 0.00 | 63 | 1017.5 |
| 20260905085210 | 25 | 204 | 6.4 | 8.0 | 0.00 | 0.00 | 0.00 | 63 | 1017.4 |
| 20260905084029 | 25 | 96 | 3.2 | 4.8 | 0.00 | 0.00 | 0.00 | 66 | 1017.3 |
| 20260905082901 | 25 | 96 | 3.2 | 3.2 | 0.00 | 0.00 | 0.00 | 67 | 1017.2 |
| 20260905081735 | 25 | 96 | 3.2 | 6.4 | 0.00 | 0.00 | 0.00 | 70 | 1017.1 |